SKYSAT C9

导读 | 星芒AI

SKYSAT C9 是 Skybox Imaging(现为 Planet Labs 旗下)发射的一颗高分辨率商业遥感卫星,属于 SKYSAT 系列。该卫星具备亚米级光学成像能力,主要用于提供高精度地球观测数据,服务于农业、城市规划、灾害监测等领域。SKYSAT C9 具有较高的机动性和快速重访能力,能够按需获取特定区域的高清影像。其数据广泛应用于政府、企业和科研机构,提升了遥感数据的实时性和应用价值。

基本信息
目录编号:
42989
目录名称:
SKYSAT C9
国际标识:
2017-068C
轨道中心:
EARTH
卫星名称:
SKYSAT C9
卫星全名:
--
卫星状态:
在轨 (已飞行3021 天)
发射日期:
2017-10-31 UTC
国别 :
美国 (US)
星等 :
--
轨道信息
数据来源 国际轨道数据
星历时间: 2026-02-07T03:34:32+0800
5小时前
查看轨道信息
半长轴: 6830.601km
偏心率: 0.0008327
轨道倾角: 97.422°
近地点辐角 243.751°
升交点赤经 173.592°
平近点角 116.288°
近地点: 446.776km
远地点: 458.152km
周期: 93.637分钟
每日圈数: 15.378517
详细信息
使用方式:
暂无
2D轨道图
3D轨道图
轨道高度分析图
轨道倾角分析图
轨道综合分析图
查看轨道综合分析图